Grand Junction, CO

4:16 AM MDT on October 16, 2019 (GMT -0600)
Walker

Weather History for KGJT - March, 2019

Change the Weather History Date:

Wednesday, March 13, 2019

  Actual Average Record
Temperature  
Mean Temperature 38 °F 43 °F  
Max Temperature 44 °F 56 °F 74 °F (1900)
Min Temperature 32 °F 31 °F 16 °F (1956)
Degree Days  
Heating Degree Days 27 22  
Month to date heating degree days 291 303  
Since 1 July heating degree days 4746 4682  
Cooling Degree Days 0 0  
Month to date cooling degree days 0 0  
Year to date cooling degree days 0 0  
Moisture  
Dew Point 32 °F    
Average Humidity 77    
Maximum Humidity 100    
Minimum Humidity 54    
Precipitation  
Precipitation 0.38 in 0.03 in 0.38 in (2019)
Month to date precipitation 1.83 0.33  
Year to date precipitation 3.27 1.45  
Snow  
Snow 0.00 in 0.10 in 2.80 in (1964)
Month to date snowfall 0.0 1.1  
Since 1 July snowfall 17.4 16.6  
Snow Depth 0.00 in    
Sea Level Pressure  
Sea Level Pressure 29.45 in    
Wind  
Wind Speed 12 mph (NNW)    
Max Wind Speed 30 mph    
Max Gust Speed 41 mph    
Visibility 8 miles    
Events Rain    
T = Trace of Precipitation, MM = Missing Value Source: NWS Daily Summary

Daily Weather History Graph

Daily Weather History Graph

Search for Another Location

Airport or City:

Astronomy

Mar. 13, 2019 Rise Set
Actual Time 7:28 AM MDT 7:18 PM MDT
Civil Twilight 7:02 AM MDT 7:45 PM MDT
Nautical Twilight 6:31 AM MDT 8:16 PM MDT
Astronomical Twilight 5:59 AM MDT 8:48 PM MDT
Moon 11:37 AM MDT (3/13) 1:22 AM MDT (3/13)
Length of Visible Light 12h 43m
Length of Day
11h 50m
Waxing Crescent, 43% of the Moon is Illuminated
Mar 13
Waxing Crescent
Mar 14
First Quarter
Mar 20
Full
Mar 27
Last Quarter
Apr 5
New

Hourly Weather History & Observations

Time (MDT) Temp. Windchill Dew Point Humidity Pressure Visibility Wind Dir Wind Speed Gust Speed Precip Events Conditions
12:38 AM 41.0 °F - 39.9 °F 96% 29.42 in 3.0 mi Calm Calm - 0.02 in Rain Light Rain
12:53 AM 41.0 °F - 39.9 °F 96% 29.35 in 3.0 mi Calm Calm - 0.03 in Rain Light Rain
1:11 AM 39.9 °F - 39.9 °F 100% 29.38 in 2.5 mi Calm Calm - 0.02 in Rain Light Rain
1:42 AM 39.9 °F 37.8 °F 39.9 °F 100% 29.36 in 3.0 mi NW 3.5 mph - 0.07 in Rain Light Rain
1:53 AM 39.9 °F 37.8 °F 39.0 °F 97% 29.31 in 2.0 mi NNW 3.5 mph - 0.09 in Rain Light Rain
2:08 AM 39.9 °F - 39.9 °F 100% 29.37 in 6.0 mi Calm Calm - 0.01 in Rain Light Rain
2:53 AM 39.9 °F 34.5 °F 37.0 °F 89% 29.31 in 6.0 mi North 8.1 mph - 0.06 in Rain Light Rain
3:53 AM 37.9 °F 33.5 °F 36.0 °F 93% 29.29 in 8.0 mi NNE 5.8 mph - 0.11 in Rain Light Rain
4:29 AM 37.9 °F 34.4 °F 36.0 °F 93% 29.32 in 7.0 mi NNE 4.6 mph - 0.03 in Rain Light Rain
4:53 AM 37.9 °F 33.5 °F 36.0 °F 93% 29.25 in 10.0 mi NE 5.8 mph - 0.06 in Rain Light Rain
5:53 AM 37.9 °F 34.4 °F 36.0 °F 93% 29.26 in 7.0 mi NNE 4.6 mph - 0.01 in Rain Light Rain
6:13 AM 37.9 °F 33.5 °F 36.0 °F 93% 29.31 in 8.0 mi North 5.8 mph - 0.01 in Rain Light Rain
6:48 AM 37.4 °F 32.1 °F 37.4 °F 100% 29.31 in 9.0 mi NNW 6.9 mph - 0.03 in Rain Light Rain
6:49 AM 37.9 °F 32.1 °F 37.0 °F 97% 29.26 in 9.0 mi NNW 8.1 mph - 0.03 in Rain Light Rain
7:18 AM 39.0 °F 34.8 °F 37.0 °F 93% 29.31 in 10.0 mi NNW 5.8 mph - 0.00 in Rain Light Rain
7:53 AM 39.0 °F 33.4 °F 37.0 °F 93% 29.27 in 10.0 mi NNW 8.1 mph - 0.01 in Rain Light Rain
8:53 AM 39.0 °F 31.8 °F 37.0 °F 93% 29.29 in 10.0 mi NW 11.5 mph - 0.01 in Rain Light Rain
9:09 AM 39.0 °F 31.8 °F 37.0 °F 93% 29.34 in 10.0 mi NW 11.5 mph - 0.00 in   Overcast
9:17 AM 39.0 °F 31.4 °F 37.0 °F 93% 29.34 in 10.0 mi WNW 12.7 mph - 0.00 in   Overcast
9:53 AM 39.9 °F 31.4 °F 36.0 °F 86% 29.30 in 10.0 mi WNW 16.1 mph - 0.00 in   Overcast
10:53 AM 42.1 °F 33.3 °F 34.0 °F 73% 29.33 in 10.0 mi WNW 19.6 mph 26.5 mph N/A   Overcast
11:53 AM 42.8 °F 34.8 °F 32.0 °F 66% 29.35 in 10.0 mi WNW 17.3 mph - N/A   Overcast
12:53 PM 42.1 °F 33.6 °F 32.0 °F 67% 29.38 in 10.0 mi WNW 18.4 mph - N/A   Overcast
1:53 PM 42.1 °F 33.3 °F 30.9 °F 65% 29.41 in 10.0 mi NNW 19.6 mph 26.5 mph N/A   Overcast
2:53 PM 43.0 °F 34.2 °F 28.0 °F 56% 29.44 in 10.0 mi North 20.7 mph 41.4 mph N/A   Overcast
3:53 PM 39.9 °F 31.1 °F 24.1 °F 53% 29.52 in 10.0 mi North 17.3 mph 28.8 mph N/A   Mostly Cloudy
4:53 PM 37.9 °F 28.2 °F 23.0 °F 55% 29.59 in 10.0 mi NNW 18.4 mph 27.6 mph N/A   Overcast
5:53 PM 37.0 °F 27.0 °F 23.0 °F 57% 29.65 in 10.0 mi North 18.4 mph 26.5 mph N/A   Overcast
6:53 PM 36.0 °F 26.0 °F 21.0 °F 55% 29.70 in 10.0 mi NNW 17.3 mph - N/A   Overcast
7:53 PM 35.1 °F 25.5 °F 21.9 °F 59% 29.76 in 10.0 mi North 15.0 mph - N/A   Clear
8:53 PM 35.1 °F 27.9 °F 21.0 °F 57% 29.81 in 10.0 mi NNW 9.2 mph - N/A   Clear
9:53 PM 33.1 °F 23.4 °F 24.1 °F 70% 29.86 in 10.0 mi NW 13.8 mph - N/A   Overcast
10:53 PM 33.1 °F 26.9 °F 26.1 °F 75% 29.90 in 10.0 mi WNW 6.9 mph - N/A   Overcast
11:53 PM 33.1 °F - 24.1 °F 70% 29.93 in 10.0 mi Calm Calm - N/A   Overcast